Погода Чапаево

Погода Чапаево : погода сейчас, прогноз погоды и архив. Всё, что Вы хотите узнать о погоде Чапаево!

Поиск расширенной информации на нашем сайте:

Другие новости

Новости СМИ2

Главная страница сайта

Новости сайта

03.07.2017

Напоминаем, что на нашем специализированном сайте Метеоцентр.Азия вы можете получить высокодетализированные автоматические прогнозы погоды по пунктам России, СНГ и мира в авиационном формате (включающие направление и скорость ветра, видимость, явления погоды, количество и форму облачности, нижнюю и верхнюю границу облачности).


Погода Чапаево - сегодня

Время (UTC), дата Ветер
(°,м/с) 
Видим.   Явления Облачность Т
(°С)
Тd
(°С)
f(%) Тe
(°С)
Pmin
(гПа)
dP
(гПа)
Po
(мм)
O2
(г/м3)
Тmin Tmax R s Состояние
почвы
18 18.01.18 090 (В) н/о    ясно 
-21 -25.9 65 -27  1025.9  -0.4  768  337    -16.8       
21 18.01.18 070 (В) н/о    ясно 
-23.7 -28.4 65 -30  1026  0.1  768  341           
00 19.01.18 080 (В) н/о    ясно 
-21.6 -26.4 65 -26  1025.3  -0.7  767  338           
03 19.01.18 080 (В) н/о    3/0 верхняя 
[Ci fib]
-20.5 -24.5 70 -27  1024.5  -0.8  767  336  -23.8      равномерный
сухой снег
100% 
06 19.01.18 090 (В) 20000 м    3/0 средняя 
[Ac lent]
-19.2 -23.3 70 -25  1025.3  0.8  767  334  -23.8         
09 19.01.18 070 (В) 20000 м    9/0 средняя 
[Ac trans]
-14.7 -18.1 75 -19  1025.2  -0.1  767  328           
12 19.01.18 070 (В) 20000 м  {снег}  9/9 600 м 
[Sc]
-12.4 -15.9 75 -18  1025.7  0.6  768  325           
15 19.01.18 070 (В) н/о    3/0 средняя 
[Ac As]
-11.7 -14.4 80 -17  1026  0.3  768  325    -11.6       
18 19.01.18 110 (В) н/о    10/10 600 м 
[Sc]
-10.1 -12.9 80 -15  1026.3  0.3  768  323    -11.6  0.0     
21 19.01.18 080 (В) н/о    3/3 600 м 
[Sc]
-12.1 -14.8 80 -16  1026.3  768  325           
00 20.01.18 090 (В) н/о    10/10 600 м 
[Sc]
-10.9 -13.7 80 -16  1025.7  -0.6  768  323           
03 20.01.18 080 (В) н/о    9/9 600 м 
[Sc]
-9.9 -14.1 71 -15  1026  0.3  768  322  -12.2      равномерный
сухой снег
100% 
06 20.01.18 090 (В) 20000 м    10/10 600 м 
[Sc]
-9.5 -14.1 69 -14  1026.5  0.5  768  322  -12.2         
09 20.01.18 140 (ЮВ) 20000 м    8/8 600 м 
[Sc]
-9.6 -13.7 72 -14  1025.7  -0.8  768  322           
12 20.01.18 090 (В) 20000 м    8/8 600 м 
[Sc]
-9.1 -13 73 -14  1025.3  -0.4  767  321           
15 20.01.18 110 (В) н/о    10/10 600 м 
[Sc]
-8.7 -12.5 74 -13  1025.6  0.3  768  321    -8.7       
18 20.01.18 090 (В) н/о    10/0 средняя 
[Ac As]
-10.6 -14.2 75 -12  1025.6  768  323    -8.7       
21 20.01.18 050 (СВ) н/о    10/0 средняя 
[Ac As]
-11.1 -13.9 80 -13  1026.6  768  324           
00 21.01.18 090 (В) н/о    10/10 600 м 
[Sc]
-10.9 -14.5 75 -15  1025.1  -1.5  767  323           
03 21.01.18 090 (В) н/о    10/10 600 м 
[Sc]
-11.6 -15.1 75 -16  1025.4  0.3  767  324        равномерный
сухой снег
100% 
06 21.01.18 110 (В) 20000 м    8/8 600 м 
[Sc]
-11.4 -15.8 70 -15  1025.8  0.4  768  324  -11.8         
09 21.01.18 110 (В) 20000 м    8/0 средняя 
[Ac und]
-10.1 -15.4 65 -15  1024.3  -1.5  767  322           
12 21.01.18 110 (В) 20000 м    10/0 средняя 
[Ac As]
-9.5 -13.6 72 -14  1023.1  -1.2  766  321           
15 21.01.18 110 (В) н/о    10/0 средняя 
[Ac As]
-9.3 -13.3 73 -13  1022.6  -0.5  765  320    -9.3       
18 21.01.18 110 (В) н/о    10/10 600 м 
[Sc]
-8.3 -12 75 -13  1022.1  -0.5  765  319    -9.3       
Время (UTC), дата Ветер
(°,м/с) 
Видим.   Явления Облачность Т
(°С)
Тd
(°С)
f(%) Тe
(°С)
Pmin
(гПа)
dP
(гПа)
Po
(мм)
O2
(г/м3)
Тmin Tmax R s Состояние
почвы

Для получения пояснительной информации подведите курсор к названию столбца.

ПОГОДА Чапаево - архив

Всё, что Вы хотите узнать о погоде Чапаево - удобно и подробно!

Выберите нужную дату (начиная с 1 января 2015* года) и нажмите кнопку "Найти".
Будут отображены архивные сводки погоды по пункту Чапаево, начиная с указанной даты.


Отображать данные в формате CSV (для использования в таблицах Excel)


Внимание! Наш архив погоды предназначен исключительно для личного некоммерческого использования в познавательных целях. Если Вам необходимы официальные справки о состоянии погоды (для производственных, юридических, коммерческих и т.п. целей), обращайтесь в органы Росгидромета.

*Примечание: данная дата относится к архиву по метеостанциям СССР (Россия, СНГ, Балтия).
Архив по метеостанциям Зарубежной Европы и Азии (кроме Китая) хранится 10 дней, по другим регионам земного шара (Китай, Африка, Америка, Австралия, Океания) - 1 день.

Чапаево - район местоположения метеостанции


Название, широта, долгота, высота метеостанции:
Чапаево 50.2°ш. 51.2°д. 17 м над ур. моря [Казахстан]

Дополнительная информация

В oтличие oт бoльшинства пoгoдных сайтoв мы публикуем пoдрoбную метеoинфoрмацию в детальнoм прoфессиoнальнoм фoрмате.

Характеристики температуры и влажнoсти вoздуха измеряются на высoте 2 м в тени вдали oт зданий и деревьев.
Скoрoсть ветра измеряется на высoте 10 м (на урoвне рoста челoвека скoрoсть ветра ниже в 1.5-2 раза). Если метеoстанция нахoдится в гoрoде или в лесу, тo скoрoсть ветра занижена на 2-4 м/с пo сравнению с oткрытым местoм. Скoрoсть ветра над акватoриями крупных рек и oзёр, а также на вершинах хoлмoв на 2-5 м/с выше, чем в oбычных услoвиях.
Атмoсфернoе давление в разных тoчках местнoсти мoжет значительнo oтличаться oт давления на метеoстанции, в зависимoсти oт услoвий рельефа (при пoдъёме на 10 м давление пoнижается примернo на 1 мм рт.ст.).